TimeEDT,TemperatureF,Dew PointF,Humidity,Sea Level PressureIn,VisibilityMPH,Wind Direction,Wind SpeedMPH,Gust SpeedMPH,PrecipitationIn,Events,Conditions,WindDirDegrees,DateUTC
12:52 AM,55.9,53.1,90,30.32,10.0,West,3.5,-,N/A,,Clear,270,2011-10-09 04:52:00
1:52 AM,55.0,52.0,89,30.32,10.0,WNW,3.5,-,N/A,,Clear,290,2011-10-09 05:52:00
2:52 AM,64.0,51.1,63,30.31,10.0,WNW,4.6,-,N/A,,Clear,290,2011-10-09 06:52:00
3:52 AM,64.9,50.0,58,30.31,10.0,NW,5.8,-,N/A,,Clear,310,2011-10-09 07:52:00
4:52 AM,66.0,50.0,56,30.31,10.0,NW,4.6,-,N/A,,Clear,310,2011-10-09 08:52:00
5:52 AM,64.0,50.0,60,30.31,10.0,WNW,5.8,-,N/A,,Clear,300,2011-10-09 09:52:00
6:52 AM,66.0,50.0,56,30.32,10.0,NW,6.9,-,N/A,,Clear,310,2011-10-09 10:52:00
7:52 AM,68.0,51.1,55,30.32,10.0,WNW,6.9,-,N/A,,Clear,300,2011-10-09 11:52:00
8:52 AM,71.1,51.1,49,30.33,10.0,NW,9.2,-,N/A,,Clear,310,2011-10-09 12:52:00
9:52 AM,73.9,50.0,43,30.32,10.0,NW,8.1,18.4,N/A,,Clear,310,2011-10-09 13:52:00
10:52 AM,77.0,48.9,37,30.32,10.0,NW,11.5,17.3,N/A,,Clear,320,2011-10-09 14:52:00
11:52 AM,79.0,48.9,35,30.30,10.0,Variable,5.8,-,N/A,,Clear,0,2011-10-09 15:52:00
12:52 PM,80.1,50.0,35,30.29,10.0,Variable,5.8,-,N/A,,Clear,0,2011-10-09 16:52:00
1:52 PM,81.0,50.0,34,30.27,10.0,WNW,8.1,-,N/A,,Clear,300,2011-10-09 17:52:00
3:52 PM,82.0,50.0,33,30.24,10.0,WNW,5.8,-,N/A,,Clear,300,2011-10-09 19:52:00
4:52 PM,75.9,61.0,60,30.23,10.0,Calm,Calm,-,N/A,,Clear,0,2011-10-09 20:52:00
5:52 PM,70.0,60.1,71,30.24,10.0,Calm,Calm,-,N/A,,Clear,0,2011-10-09 21:52:00
6:52 PM,64.9,60.1,84,30.24,10.0,Calm,Calm,-,N/A,,Clear,0,2011-10-09 22:52:00
7:52 PM,66.9,57.9,73,30.24,10.0,West,3.5,-,N/A,,Clear,280,2011-10-09 23:52:00
8:52 PM,66.9,55.9,68,30.23,10.0,Calm,Calm,-,N/A,,Clear,0,2011-10-10 00:52:00
9:52 PM,68.0,55.0,63,30.22,10.0,WNW,3.5,-,N/A,,Clear,290,2011-10-10 01:52:00
10:52 PM,66.0,54.0,65,30.22,10.0,WNW,4.6,-,N/A,,Clear,290,2011-10-10 02:52:00
11:52 PM,66.9,54.0,63,30.21,10.0,NW,4.6,-,N/A,,Clear,310,2011-10-10 03:52:00